Contract 0x46dd33d129d928cb9d389f254aabb134f215c8c8

 
Txn Hash Method
Block
From
To
Value [Txn Fee]
0x2b93d390c6bf26cfb350bce5583b1ad831c8f29f8d6636f27ba4a2f696952ca9Buy196867922021-09-30 16:51:3661 days 10 hrs ago0xb5fc4d5388952dc7a798fe784fe659f9a20e5ca4 IN  0x46dd33d129d928cb9d389f254aabb134f215c8c80 MATIC0.000286827975
0x78a61cffc40de1d45f2843d0a6dc98fb55edc6008d5fb95a2cf5bcaf549e2be0Buy196867852021-09-30 16:51:2261 days 11 hrs ago0xb5fc4d5388952dc7a798fe784fe659f9a20e5ca4 IN  0x46dd33d129d928cb9d389f254aabb134f215c8c80 MATIC0.000478046625
0x3b49a411339937753ed3e6bca024001b0495e218dd0e7fadafa3d22c7b49752bSell196861842021-09-30 16:27:5861 days 11 hrs ago0xb5fc4d5388952dc7a798fe784fe659f9a20e5ca4 IN  0x46dd33d129d928cb9d389f254aabb134f215c8c80 MATIC0.001307273625
0xbdebda6e18e26ace9c36b23af43dfe6ac81d24fbbb4595db0767e94a81c74137Buy196732552021-09-30 8:23:3761 days 19 hrs ago0xb5fc4d5388952dc7a798fe784fe659f9a20e5ca4 IN  0x46dd33d129d928cb9d389f254aabb134f215c8c80 MATIC0.00095609325
0x6dc86942ec706ea048db7685a560da291a865ebf3f84ce26e6fd42bd8e4f1edbBuy196732502021-09-30 8:23:2761 days 19 hrs ago0xb5fc4d5388952dc7a798fe784fe659f9a20e5ca4 IN  0x46dd33d129d928cb9d389f254aabb134f215c8c80 MATIC0.00104586825
0xb7c8aee5d4e885098d662e6ae9c8fdae5c5393c577805ddfcb79d4a5757d15e5Buy196704712021-09-30 6:38:3861 days 21 hrs ago0xb5fc4d5388952dc7a798fe784fe659f9a20e5ca4 IN  0x46dd33d129d928cb9d389f254aabb134f215c8c80 MATIC0.001434139875
0x510bd69d93ae2d3ce3acc0b4d4110747dd3185118bc60bf7ee140682bfe7720aBuy196704672021-09-30 6:38:3061 days 21 hrs ago0xb5fc4d5388952dc7a798fe784fe659f9a20e5ca4 IN  0x46dd33d129d928cb9d389f254aabb134f215c8c80 MATIC0.00478078125
0xe7ae0a85daa409d6914dc5a3638e0634283f1da5cb7d1adfa81fed4f9eab4c62Buy196700522021-09-30 6:19:4861 days 21 hrs ago0x9582764b384ff96b3f8a84fc8240c302f800003b IN  0x46dd33d129d928cb9d389f254aabb134f215c8c80 MATIC0.04979125
0x535d8690baee5634e28d22b3b7de8502d7149b2b09534a2eb5be15da481a526dSell196672912021-09-30 4:33:2561 days 23 hrs ago0xb5fc4d5388952dc7a798fe784fe659f9a20e5ca4 IN  0x46dd33d129d928cb9d389f254aabb134f215c8c80 MATIC0.000996018
0xd320ce23fed6d9c3fdbc0e125031628a8d79da6c2806406faa2372bfe0cb1ef9Sell196670872021-09-30 4:23:1361 days 23 hrs ago0xb5fc4d5388952dc7a798fe784fe659f9a20e5ca4 IN  0x46dd33d129d928cb9d389f254aabb134f215c8c80 MATIC0.00087157875
0x3c927fdfa1536e5d2040826b7cf89cfd3660762a5d0ad37f5384b1b110796126Sell196669612021-09-30 4:17:4961 days 23 hrs ago0xb5fc4d5388952dc7a798fe784fe659f9a20e5ca4 IN  0x46dd33d129d928cb9d389f254aabb134f215c8c80 MATIC0.000435789375
0x96b060a538fccaa61cea4a781e9f5ef838d8b3d35e5f3a085391626efbee4dcbBuy196645732021-09-30 2:38:3062 days 1 hr ago0xd49c4579bbc25d1d1a26a1976c9576d806c98150 IN  0x46dd33d129d928cb9d389f254aabb134f215c8c80 MATIC0.0095609325
0xeef9c550755f5e256114c8d2af6128c311cff3a3db8622038d722ac94776d7e8Buy196644622021-09-30 2:34:4462 days 1 hr ago0xb5fc4d5388952dc7a798fe784fe659f9a20e5ca4 IN  0x46dd33d129d928cb9d389f254aabb134f215c8c80 MATIC0.0019121865
0x0803754beb1e9569824058ce6bdde4142e74e38f94dfa11d8fde8890da2adbc6Buy196643572021-09-30 2:31:0662 days 1 hr ago0xb5fc4d5388952dc7a798fe784fe659f9a20e5ca4 IN  0x46dd33d129d928cb9d389f254aabb134f215c8c80 MATIC0.00095603025
0x2e6d0ff96b46a47895e77f0f855cd77dd0f59bb21ae96bdb2eecbcc9bf34432aBuy196642992021-09-30 2:29:0662 days 1 hr ago0xb5fc4d5388952dc7a798fe784fe659f9a20e5ca4 IN  0x46dd33d129d928cb9d389f254aabb134f215c8c80 MATIC0.00095609325
0xc99dad81071f9f500a2980918d649a4c7dee63483e72ab514c77115849e480c2Sell196633732021-09-30 1:53:0262 days 1 hr ago0xb77df9350b09a2c28a9094cd0e84141b428d997a IN  0x46dd33d129d928cb9d389f254aabb134f215c8c80 MATIC0.00497937
0xb6071b77578e33b47cfdd7ad54e0ebdb82b924dafe6008110bf7eb7e735d5477Sell196629052021-09-30 1:32:2662 days 2 hrs ago0x88186ddbea78ab3d65b7d08f0658b9c22037f265 IN  0x46dd33d129d928cb9d389f254aabb134f215c8c80 MATIC0.166003
0x37b5b2dde68d3b20e695f2e29b224f9d5a6ffe5cd7dd93b3dd49f672b19644b0Sell196620612021-09-30 0:57:0962 days 2 hrs ago0xb5fc4d5388952dc7a798fe784fe659f9a20e5ca4 IN  0x46dd33d129d928cb9d389f254aabb134f215c8c80 MATIC0.00087151575
0x9905f7dae7a0842cf625e334e5e8ae2b96ad1a795e5078c6c52421e1408e0349Sell196604462021-09-29 23:48:3462 days 4 hrs ago0x88186ddbea78ab3d65b7d08f0658b9c22037f265 IN  0x46dd33d129d928cb9d389f254aabb134f215c8c80 MATIC0.013944252
0xb8d40502db6380090e51669a0e6fadebf0cc6c31123a8a6b5429d46b9b4a8c5eRemove Funding196604162021-09-29 23:47:3462 days 4 hrs ago0x88186ddbea78ab3d65b7d08f0658b9c22037f265 IN  0x46dd33d129d928cb9d389f254aabb134f215c8c80 MATIC0.0176588
0xb1f853edefafa854c3f6ffbd4d63bbccf869ffbea15de3210aeafdcae7e51179Add Funding196604152021-09-29 23:47:2862 days 4 hrs ago0x88186ddbea78ab3d65b7d08f0658b9c22037f265 IN  0x46dd33d129d928cb9d389f254aabb134f215c8c80 MATIC0.056044989
0x981975be893015746e23144a1b3e246ebb7c79a7d1dbf25ae746386603042b72Sell196603612021-09-29 23:45:4062 days 4 hrs ago0x88186ddbea78ab3d65b7d08f0658b9c22037f265 IN  0x46dd33d129d928cb9d389f254aabb134f215c8c80 MATIC0.080179449
0xbc52dc97358bb6411ba75de8319f3b142af0cb0bb0353a0414b47b72c652cc5fSell196603262021-09-29 23:44:2662 days 4 hrs ago0x88186ddbea78ab3d65b7d08f0658b9c22037f265 IN  0x46dd33d129d928cb9d389f254aabb134f215c8c80 MATIC0.08509105
0x3369f6e7346e4b7784174c3649f001b095828073fec5f3dafe10f753f57d2586Sell196602972021-09-29 23:43:2862 days 4 hrs ago0x88186ddbea78ab3d65b7d08f0658b9c22037f265 IN  0x46dd33d129d928cb9d389f254aabb134f215c8c80 MATIC0.09130165
0xa42adba314c255df3e00d50d3ba463689d3fd8c69265fa03ebd645ee1a6aa1f2Sell196602382021-09-29 23:41:2662 days 4 hrs ago0x88186ddbea78ab3d65b7d08f0658b9c22037f265 IN  0x46dd33d129d928cb9d389f254aabb134f215c8c80 MATIC0.087527
[ Download CSV Export 
Latest 1 internal transaction
Parent Txn Hash Block From To Value
0xf8c9117585d4dba4ce7ebd813f93e708ca3084a2f87de90ab570a14259a40895169273432021-07-16 15:09:34137 days 12 hrs ago 0x8b9805a2f595b6705e74f7310829f2d299d21522  Contract Creation0 MATIC
[ Download CSV Export 
Loading
Are you the contract creator? Verify and Publish your contract source code today!
This contract was created by the contract code at 0x8b9805a2f595b6705e74f7310829f2d299d21522
Note: We also found another 2065 contracts with exact matching byte codes

Decompile ByteCode
0x363d3d373d3d3d363d730b8a853ad2e8984a429f36dabc75f0cbdd5534f85af43d82803e903d91602b57fd5bf3 
Block Transaction Gas Used Reward
Age Block Fee Address BC Fee Address Voting Power Jailed Incoming
Block Uncle Number Difficulty Gas Used Reward
Loading
Loading
Make sure to use the "Vote Down" button for any spammy posts, and the "Vote Up" for interesting conversations.